Regional Weather Roundup
Issued by NWS

Home | Current Version | Previous Version | Graphics & Text | Print | Product List | Glossary On
Versions: 1 2 3 4 5 6 7 8 9 10 11 12 13 14 15 16 17 18 19 20 21 22 23 24 25 26 27 28 29 30 31 32 33 34 35 36 37 38 39 40 41 42 43 44 45 46 47 48 49 50
000
ASUS43 KMKX 230400
RWRWI

WISCONSIN REGIONAL WEATHER ROUNDUP
NATIONAL WEATHER SERVICE MILWAUKEE/SULLIVAN WI
1000 PM CST WED NOV 22 2017

NOTE: "FAIR" INDICATES FEW OR NO CLOUDS BELOW 12,000 FEET WITH NO
SIGNIFICANT WEATHER AND/OR OBSTRUCTIONS TO VISIBILITY.

WIZ001-002-006>008-014>016-023>028-230500-
NORTHWEST WISCONSIN

CITY           SKY/WX    TMP DP  RH WIND       PRES   REMARKS
SUPERIOR ARPT  CLOUDY    23  21  93 SW5       30.00F WCI  17
ASHLAND        CLOUDY    23  18  81 S12       30.00F WCI  12
HAYWARD        CLOUDY    24  19  81 S6        30.01F WCI  17
SIREN          CLOUDY    25  19  79 SE5       30.00F WCI  19
CUMBERLAND     CLOUDY    25  18  74 SE5       30.01F WCI  19
RICE LAKE      CLOUDY    26  20  79 E5        30.05S WCI  20
CHETEK         CLOUDY    25  19  76 SE5       30.05S WCI  20
LADYSMITH      CLOUDY    25  19  79 SE5       30.05F WCI  19
EAU CLAIRE     NOT AVBL
MENOMONIE      CLOUDY    30  17  59 SE6       30.03F WCI  24
NEW RICHMOND   CLOUDY    29  17  60 SE6       30.00F WCI  23
OSCEOLA        CLOUDY    29  20  69 SE7       30.02F WCI  22
$$

WIZ003>005-009-010-017-018-230500-
NORTH CENTRAL WISCONSIN

CITY           SKY/WX    TMP DP  RH WIND       PRES   REMARKS
MANITOWISH WTR LGT SNOW  21  19  94 SW8       30.01S WCI  11
ARBOR VITAE    LGT SNOW  23  19  83 SW7       30.01S WCI  15
WOODRUFF       LGT SNOW  23  19  83 SW7       30.01S WCI  15
RHINELANDER    LGT SNOW  22  19  89 SW8       30.02F FOG     WCI  12
EAGLE RIVER    CLOUDY    23  14  69 SW8       30.00S WCI  13
LAND O LAKES   CLOUDY    23  15  71 SW6       30.00F WCI  16
PHILLIPS       LGT SNOW  21  20  94 S7        30.02F WCI  12
TOMAHAWK       LGT SNOW  22  18  85 CALM      30.04F
MEDFORD        CLOUDY    24  17  75 S7        30.04S WCI  16
MERRILL        LGT SNOW  23  19  84 SW6       30.07S WCI  16
$$

WIZ029-030-035-036-043>047-230500-
CENTRAL WISCONSIN

CITY           SKY/WX    TMP DP  RH WIND       PRES   REMARKS
WAUSAU         CLOUDY    24  19  81 SW8       30.06S HAZE    WCI  15
MOSINEE        CLOUDY    25  19  80 S9        30.07F WCI  15
MARSHFIELD     CLOUDY    26  15  63 S7        30.05F WCI  18
STEVENS POINT  LGT SNOW  24  18  77 SW9       30.10R WCI  15
WAUPACA        CLOUDY    31  17  57 S7        30.11F WCI  24
WAUTOMA        FLURRIES  28  19  69 SW7       30.12  WCI  21
WISC RAPIDS    CLOUDY    28  18  66 SW9       30.09F WCI  19
CAMP DOUGLAS   CLOUDY    30  17  58 S7        30.08F WCI  23
$$

WIZ011>013-019>022-031-037>040-048>050-230500-
NORTHEAST WISCONSIN

CITY           SKY/WX    TMP DP  RH WIND       PRES   REMARKS
ANTIGO         CLOUDY    24  15  68 SW6       30.05S WCI  17
SHAWANO        CLOUDY    30  16  56 SW3       30.09F
OCONTO         MOCLDY    28  15  57 SW5       30.11S WCI  23
STURGEON BAY   CLOUDY    28  19  69 S8        30.11F WCI  20
GREEN BAY      CLOUDY    30  20  66 SW6       30.12S WCI  24
MANITOWOC      MIX PCPN  30  19  63 SW6       30.14R WCI  24
APPLETON       CLOUDY    27  18  69 SW13      30.10S WCI  16
CLINTONVILLE   CLOUDY    28  16  59 SW8       30.10F WCI  20
OSHKOSH        LGT SNOW  29  21  72 SW10G17   30.12S WCI  20
$$

WIZ032>034-041-042-053>061-230500-
SOUTHWEST WISCONSIN

CITY           SKY/WX    TMP DP  RH WIND       PRES   REMARKS
LA CROSSE      CLOUDY    33  17  51 S10       30.08F WCI  25
SPARTA         CLOUDY    30  18  60 S6        30.09F WCI  24
VIROQUA        CLOUDY    30  19  63 S9        30.07F WCI  21
BOSCOBEL       CLOUDY    34  16  47 CALM      30.13F
PRAIRIE DU CHI CLOUDY    33  14  46 CALM      30.12F
PLATTEVILLE    CLOUDY    31  20  63 S9        30.14R WCI  23
$$

WIZ056-057-062-063-064-067-068-230500-
SOUTH CENTRAL WISCONSIN

CITY           SKY/WX    TMP DP  RH WIND       PRES   REMARKS
REEDSBURG      CLOUDY    30  16  54 SW7       30.12S WCI  23
BARABOO/DELLS  CLOUDY    30  15  53 SW5       30.12R WCI  25
LONE ROCK      NOT AVBL
MINERAL POINT  PTCLDY    32  19  59 S8        30.12R WCI  25
MADISON        CLOUDY    31  17  56 SW8       30.13F WCI  23
MIDDLETON      CLOUDY    32  18  55 SW7       30.14R WCI  26
WATERTOWN      CLOUDY    30  19  61 SW7       30.14F WCI  23
MONROE         CLOUDY    30  19  64 S10       30.14S WCI  21
JANESVILLE     CLOUDY    32  19  59 S6        30.15S WCI  26
$$

WIZ051-052-058>065-066-070>072-230500-
SOUTHEAST WISCONSIN

CITY           SKY/WX    TMP DP  RH WIND       PRES   REMARKS
MILWAUKEE      CLOUDY    32  19  58 SW9       30.16F WCI  24
WAUKESHA       CLOUDY    28  18  64 SW7       30.15F WCI  21
MILWAUKEE/TIMM CLOUDY    32  14  47 SW9       30.16F WCI  24
RACINE         CLOUDY    31  18  58 SW9       30.18S WCI  23
BURLINGTON     PTCLDY    32  24  73 SW7       30.17S WCI  26
KENOSHA        CLOUDY    31  18  58 SW7       30.17S WCI  24
FOND DU LAC    LGT SNOW  29  19  66 SW9G18    30.13S WCI  20
SHEBOYGAN      CLOUDY    30  18  60 SW7       30.13S WCI  23
WEST BEND      CLOUDY    30  18  59 SW9       30.13S WCI  22
JUNEAU         CLOUDY    29  19  64 SW10      30.15S WCI  20
$$

LSZ147-162-230500-
LAKE SUPERIOR

STATION/POSITION TIME  TEMP    WIND        PRES    WAVE
                       AIR SEA DIR/SP/G            HT/PER
                 (UTC) (F)     (DEG/KT/KT) (MB)    (FT/S)
DEVILS ISLAND    0300   26     220/ 17/ 21 1017.4F
SAXON HARBOR     0340   25     200/ 10/ 13 1015.9F
$$

LMZ867-665-643>646-230500-
LAKE MICHIGAN

STATION/POSITION TIME  TEMP    WIND        PRES    WAVE
                       AIR SEA DIR/SP/G            HT/PER
                 (UTC) (F)     (DEG/KT/KT) (MB)    (FT/S)
N MID LAKE BUOY  0250   32 47  220/ 16/ 19 1020.3F   3/ 5
NORTHPORT PIER   0340   29     170/  4/  7 1018.6F
KEWAUNEE LAKESHO 0330   30     230/  5/  8 1019.4R
SHEBOYGAN LAKESH 0300   31     210/ 11/ 14 1021.2F
PORT WASHINGTON  0330   32     240/  8/ 12 1022.0R
MILWAUKEE LAKESH 0330   32     220/ 12/ 14   N/A
S MID LAKE BUOY  0250   35 47  250/ 16/ 19 1022.6F   2/ 3
KENOSHA   LAKESH 0300   31     210/  7/ 11 1022.0
$$

TC  - TEMPERATURE IN CELSIUS
VSB - VISIBILITY IN STATUTE MILES
WCI - WIND CHILL INDEX
HX  - HEAT INDEX





USA.gov is the U.S. government's official web portal to all federal, state and local government web resources and services.